Flag for U.S.A. Weather past 2 weeks in Atlantic City, New Jersey, U.S.A.

Now
76 °F

Passing clouds.


Feels Like: 77 °F
Forecast: 71 / 80 °F
Wind: 12 mph from South

Location: Atlantic City International Airport

Current Time: Jun 30, 2015 at 8:19:26 PM

Latest Report: Jun 30, 2015 at 7:54 PM


Visibility: 10 mi

Pressure: 29.85 "Hg

Humidity: 82%

Dew point: 70 °F

Location of Atlantic CityLocation

Historic Weather in Atlantic City — Graph

°F

Atlantic City temperature yesterday

Maximum temperature yesterday: 80 °F (at 4:54 PM)
Minimum temperature yesterday: 61 °F (at 5:54 AM)
Average temperature yesterday: 71 °F

Past Weeks' High & Low Weather Summary

 TemperatureHumidityPressure
High94 °F (Jun 23, 4:54 PM)100% (Jun 19, 4:54 AM)30.14 "Hg (Jun 19, 4:54 AM)
Low60 °F (Jun 30, 4:54 AM)34% (Jun 22, 2:54 PM)29.63 "Hg (Jun 28, 4:54 AM)
Average74 °F74%29.94 "Hg
* Reported Jun 15 6:54 PM — Jun 30 6:54 PM, Atlantic City, Weather by CustomWeather, © 2015

Note: Actual official high and low records may vary slightly from our data, if they occured in-between our weather recording intervals... More about our weather records

Advertising

Atlantic City weather history for previous 24 hours

 ConditionsComfort  
Time TempWeatherWind HumidityBarometerVisibility
6:54 PM
Tue, Jun 30
77 °FPassing clouds.15 mph79%29.86 "Hg10 mi
5:54 PM77 °FPartly sunny.15 mph79%29.86 "Hg10 mi
4:54 PM80 °FScattered clouds.12 mph74%29.87 "Hg10 mi
3:54 PM79 °FWarm.18 mph72%29.88 "Hg10 mi
2:54 PM81 °FPassing clouds.15 mph65%29.90 "Hg10 mi
1:54 PM80 °FSunny.14 mph62%29.93 "Hg10 mi
12:54 PM80 °FSunny.12 mph56%29.95 "Hg10 mi
11:54 AM80 °FPassing clouds.10 mph62%29.96 "Hg10 mi
10:54 AM79 °FPartly sunny.13 mph62%29.97 "Hg10 mi
9:54 AM78 °FPassing clouds.12 mph66%29.98 "Hg10 mi
8:54 AM77 °FScattered clouds.9 mph62%29.98 "Hg10 mi
7:54 AM74 °FScattered clouds.7 mph71%29.97 "Hg10 mi
6:54 AM71 °FSunny.7 mph84%29.98 "Hg10 mi
5:54 AM64 °FPassing clouds.No wind90%29.96 "Hg10 mi
4:54 AM60 °FClear.3 mph93%29.95 "Hg10 mi
3:54 AM62 °FClear.No wind90%29.95 "Hg10 mi
2:54 AM62 °FClear.No wind83%29.96 "Hg10 mi
1:54 AM65 °FClear.No wind81%29.97 "Hg10 mi
12:54 AM68 °FClear.6 mph78%29.96 "Hg10 mi
11:54 PM
Mon, Jun 29
68 °FClear.3 mph82%29.96 "Hg10 mi
10:54 PM71 °FClear.6 mph73%29.97 "Hg10 mi
9:54 PM71 °FClear.6 mph73%29.97 "Hg10 mi
8:54 PM73 °FSunny.7 mph69%29.95 "Hg10 mi
Weather by CustomWeather, © 2015

See weather overviewHow to use our weather pages